Location: Handeloh
(53.2500°N, 9.8330°E)
Time: 20:47:52
(UTC+01:00)

S-56A Canister/Altair - Pass Details

Date: 24 November 2019
Orbit: 633 x 2499 km, 38.9° (Epoch: 11 December)

Event Time Altitude Azimuth Distance (km) Brightness Sun altitude
Rises 15:40:09 0° 224° (SW) 5,804 15.1 3.1°
Reaches altitude 10° 15:45:01 10° 214° (SW) 4,543 13.3 2.5°
Maximum altitude 15:54:11 27° 165° (SSE) 2,807 10.7 1.5°
Drops below altitude 10° 16:01:04 10° 112° (ESE) 3,343 10.5 0.7°
Sets 16:04:02 0° 100° (E) 4,053 10.8 0.3°
